Location: Newark
(18.1281°S, 69.1289°W)
Time: 18:29:34
(UTC+00:00)

LightSail 2 - Visible Passes

Search period start: 10 December 2019 00:00
Search period end: 20 December 2019 00:00
Orbit: 696 x 730 km, 24.0° (Epoch: 10 December)

Date Brightness Start Highest point End Pass type
(mag) Time Alt. Az. Time Alt. Az. Time Alt. Az.
10 Dec 7.1 06:57:00 26° ESE 06:57:00 26° ESE 06:59:21 10° ESE visible
10 Dec 6.1 08:35:58 13° WSW 08:40:13 42° S 08:45:06 10° ESE visible
11 Dec 6.0 07:41:23 41° SSW 07:42:00 43° S 07:46:52 10° ESE visible
11 Dec 5.9 09:22:55 10° WSW 09:27:54 52° S 09:32:55 10° E visible
12 Dec 7.4 06:46:52 21° ESE 06:46:52 21° ESE 06:48:40 10° ESE visible
12 Dec 6.0 08:25:50 16° WSW 08:29:42 46° S 08:34:37 10° E visible
13 Dec 6.0 07:31:23 43° S 07:31:28 43° S 07:36:19 10° ESE visible
13 Dec 5.4 09:12:11 10° WSW 09:17:16 69° SSE 09:22:23 10° E visible
14 Dec 7.7 06:37:02 15° ESE 06:37:02 15° ESE 06:38:02 10° ESE visible
14 Dec 5.6 08:16:01 23° WSW 08:19:05 57° S 08:24:06 10° E visible
15 Dec 7.2 00:16:18 10° N 00:16:57 11° N 00:16:57 11° N visible
15 Dec 6.1 07:21:49 43° SE 07:21:49 43° SE 07:25:48 10° E visible
15 Dec 5.1 09:01:26 10° WSW 09:06:32 83° NNW 09:11:39 10° ENE visible
16 Dec 7.0 01:01:06 10° NW 01:02:29 17° NNW 01:02:29 17° NNW visible
16 Dec 5.1 08:06:44 43° WSW 08:08:22 78° SSE 08:13:28 10° ENE visible
17 Dec 6.4 00:03:32 10° NNW 00:07:30 22° NNE 00:09:00 20° NE visible
17 Dec 7.7 01:47:43 10° WNW 01:48:02 12° WNW 01:48:02 12° WNW visible
17 Dec 6.8 07:12:49 27° E 07:12:49 27° E 07:15:13 10° E visible
17 Dec 5.3 08:51:50 16° W 08:55:42 52° NNW 09:00:38 10° NE visible
18 Dec 5.3 00:49:41 10° NW 00:54:30 51° NNE 00:54:30 51° NNE visible
18 Dec 5.1 07:58:05 65° NNE 07:58:05 65° NNE 08:02:37 10° ENE visible
18 Dec 5.7 23:51:46 10° NW 23:56:33 37° NNE 00:00:50 12° E visible
19 Dec 6.4 01:36:49 10° WNW 01:39:52 36° W 01:39:52 36° W visible
19 Dec 7.9 07:04:27 10° ENE 07:04:27 10° ENE 07:04:28 10° ENE visible
19 Dec 5.9 08:43:30 27° NW 08:44:46 31° NNW 08:49:14 10° NE visible
